| time (UTC) | temp C | wind direction | speed KPH | gust KPH | rain 1hr cm | rain 24hr cm | rain mn cm | humidity % | barometer mb |
| 20260906130805 | 33 | 135 | 3.2 | 9.7 | 0.00 | 0.00 | 0.00 | 44 | 1015.3 |
| 20260906125805 | 33 | 130 | 3.2 | 11.3 | 0.00 | 0.00 | 0.00 | 44 | 1015.2 |
| 20260906125306 | 33 | 144 | 3.2 | 9.7 | 0.00 | 0.00 | 0.00 | 43 | 1015.2 |
| 20260906124805 | 33 | 145 | 3.2 | 11.3 | 0.00 | 0.00 | 0.00 | 44 | 1015.2 |
| 20260906124304 | 34 | 145 | 3.2 | 11.3 | 0.00 | 0.00 | 0.00 | 45 | 1015.2 |
| 20260906123805 | 34 | 145 | 3.2 | 11.3 | 0.00 | 0.00 | 0.00 | 42 | 1015.3 |
| 20260906123304 | 35 | 142 | 4.8 | 12.9 | 0.00 | 0.00 | 0.00 | 41 | 1015.4 |
| 20260906122306 | 35 | 142 | 1.6 | 11.3 | 0.00 | 0.00 | 0.00 | 43 | 1015.3 |
| 20260906121305 | 35 | 152 | 4.8 | 9.7 | 0.00 | 0.00 | 0.00 | 44 | 1015.4 |
| 20260906120804 | 35 | 135 | 1.6 | 8.0 | 0.00 | 0.00 | 0.00 | 45 | 1015.4 |
| 20260906120304 | 36 | 140 | 1.6 | 4.8 | 0.00 | 0.00 | 0.00 | 44 | 1015.4 |
| 20260906115804 | 36 | 127 | 1.6 | 4.8 | 0.00 | 0.00 | 0.00 | 44 | 1015.4 |
| 20260906115306 | 36 | 112 | 1.6 | 4.8 | 0.00 | 0.00 | 0.00 | 43 | 1015.5 |
| 20260906114805 | 35 | 144 | 0.0 | 4.8 | 0.00 | 0.00 | 0.00 | 42 | 1015.5 |
| 20260906114305 | 35 | 141 | 0.0 | 4.8 | 0.00 | 0.00 | 0.00 | 42 | 1015.6 |
| 20260906113805 | 35 | 131 | 1.6 | 4.8 | 0.00 | 0.00 | 0.00 | 42 | 1015.6 |
| 20260906113305 | 35 | 121 | 0.0 | 1.6 | 0.00 | 0.00 | 0.00 | 41 | 1015.6 |
| 20260906112805 | 35 | 121 | 0.0 | 4.8 | 0.00 | 0.00 | 0.00 | 41 | 1015.7 |
| 20260906112306 | 35 | 98 | 0.0 | 3.2 | 0.00 | 0.00 | 0.00 | 41 | 1015.6 |
| 20260906111305 | 35 | 322 | 0.0 | 3.2 | 0.00 | 0.00 | 0.00 | 36 | 1015.9 |
| 20260906110804 | 35 | 304 | 0.0 | 3.2 | 0.00 | 0.00 | 0.00 | 31 | 1015.9 |
| 20260906105306 | 34 | 304 | 0.0 | 0.0 | 0.00 | 0.00 | 0.00 | 34 | 1016.0 |
| 20260906104804 | 34 | 304 | 0.0 | 3.2 | 0.00 | 0.00 | 0.00 | 34 | 1016.1 |
| 20260906104305 | 34 | 308 | 0.0 | 3.2 | 0.00 | 0.00 | 0.00 | 35 | 1016.1 |
| 20260906103805 | 34 | 345 | 0.0 | 0.0 | 0.00 | 0.00 | 0.00 | 35 | 1016.2 |
| 20260906103305 | 33 | 346 | 0.0 | 3.2 | 0.00 | 0.00 | 0.00 | 35 | 1016.2 |
| 20260906102805 | 33 | 286 | 0.0 | 3.2 | 0.00 | 0.00 | 0.00 | 36 | 1016.3 |
| 20260906101804 | 33 | 287 | 0.0 | 3.2 | 0.00 | 0.00 | 0.00 | 36 | 1016.3 |
| 20260906101305 | 33 | 273 | 0.0 | 3.2 | 0.00 | 0.00 | 0.00 | 37 | 1016.4 |
| 20260906100804 | 33 | 273 | 0.0 | 3.2 | 0.00 | 0.00 | 0.00 | 36 | 1016.5 |
| 20260906100306 | 33 | 273 | 0.0 | 1.6 | 0.00 | 0.00 | 0.00 | 36 | 1016.4 |
| 20260906095804 | 33 | 273 | 0.0 | 0.0 | 0.00 | 0.00 | 0.00 | 36 | 1016.5 |
| 20260906095306 | 32 | 273 | 0.0 | 1.6 | 0.00 | 0.00 | 0.00 | 36 | 1016.5 |
| 20260906094805 | 32 | 273 | 0.0 | 1.6 | 0.00 | 0.00 | 0.00 | 36 | 1016.5 |
| 20260906094305 | 32 | 273 | 0.0 | 3.2 | 0.00 | 0.00 | 0.00 | 39 | 1016.5 |
| 20260906093804 | 32 | 272 | 0.0 | 3.2 | 0.00 | 0.00 | 0.00 | 42 | 1016.6 |
| 20260906093304 | 32 | 272 | 0.0 | 3.2 | 0.00 | 0.00 | 0.00 | 43 | 1016.5 |
| 20260906092804 | 32 | 273 | 0.0 | 1.6 | 0.00 | 0.00 | 0.00 | 44 | 1016.5 |
| 20260906092306 | 31 | 273 | 0.0 | 0.0 | 0.00 | 0.00 | 0.00 | 45 | 1016.5 |
| 20260906091804 | 31 | 273 | 0.0 | 0.0 | 0.00 | 0.00 | 0.00 | 47 | 1016.5 |
| 20260906091305 | 31 | 273 | 0.0 | 1.6 | 0.00 | 0.00 | 0.00 | 47 | 1016.5 |
| 20260906090305 | 30 | 273 | 0.0 | 4.8 | 0.00 | 0.00 | 0.00 | 48 | 1016.5 |
| 20260906085307 | 30 | 267 | 0.0 | 0.0 | 0.00 | 0.00 | 0.00 | 47 | 1016.4 |
| 20260906084804 | 30 | 267 | 0.0 | 0.0 | 0.00 | 0.00 | 0.00 | 47 | 1016.4 |
| 20260906083805 | 30 | 267 | 0.0 | 0.0 | 0.00 | 0.00 | 0.00 | 48 | 1016.4 |
| 20260906082804 | 29 | 267 | 0.0 | 3.2 | 0.00 | 0.00 | 0.00 | 49 | 1016.4 |
| 20260906081804 | 28 | 268 | 0.0 | 1.6 | 0.00 | 0.00 | 0.00 | 51 | 1016.4 |
| 20260906081304 | 28 | 268 | 0.0 | 3.2 | 0.00 | 0.00 | 0.00 | 57 | 1016.4 |
| 20260906080804 | 28 | 282 | 1.6 | 4.8 | 0.00 | 0.00 | 0.00 | 61 | 1016.4 |
| 20260906080304 | 28 | 260 | 0.0 | 0.0 | 0.00 | 0.00 | 0.00 | 61 | 1016.3 |
| 20260906075805 | 28 | 259 | 0.0 | 0.0 | 0.00 | 0.00 | 0.00 | 61 | 1016.3 |
| 20260906075306 | 27 | 261 | 0.0 | 0.0 | 0.00 | 0.00 | 0.00 | 62 | 1016.3 |
| 20260906074804 | 27 | 327 | 0.0 | 0.0 | 0.00 | 0.00 | 0.00 | 63 | 1016.3 |
| 20260906074305 | 27 | 327 | 0.0 | 0.0 | 0.00 | 0.00 | 0.00 | 64 | 1016.3 |
| 20260906073804 | 27 | 327 | 0.0 | 0.0 | 0.00 | 0.00 | 0.00 | 65 | 1016.2 |
| 20260906073304 | 26 | 327 | 0.0 | 0.0 | 0.00 | 0.00 | 0.00 | 65 | 1016.2 |
| 20260906072804 | 26 | 34 | 0.0 | 0.0 | 0.00 | 0.00 | 0.00 | 66 | 1016.1 |
| 20260906072306 | 26 | 43 | 0.0 | 0.0 | 0.00 | 0.00 | 0.00 | 68 | 1016.1 |
| 20260906071304 | 25 | 42 | 0.0 | 0.0 | 0.00 | 0.00 | 0.00 | 70 | 1016.1 |
| 20260906070805 | 25 | 43 | 0.0 | 0.0 | 0.00 | 0.00 | 0.00 | 71 | 1016.1 |
| 20260906070305 | 25 | 43 | 0.0 | 0.0 | 0.00 | 0.00 | 0.00 | 72 | 1016.0 |
| 20260906065805 | 24 | 43 | 0.0 | 0.0 | 0.00 | 0.00 | 0.00 | 72 | 1016.1 |
| 20260906065306 | 24 | 43 | 0.0 | 0.0 | 0.00 | 0.00 | 0.00 | 73 | 1016.1 |
| 20260906064805 | 23 | 43 | 0.0 | 0.0 | 0.00 | 0.00 | 0.00 | 73 | 1016.1 |
| 20260906064304 | 23 | 43 | 0.0 | 0.0 | 0.00 | 0.00 | 0.00 | 73 | 1016.1 |
| 20260906063805 | 23 | 43 | 0.0 | 0.0 | 0.00 | 0.00 | 0.00 | 74 | 1016.0 |
| 20260906062805 | 23 | 43 | 0.0 | 0.0 | 0.00 | 0.00 | 0.00 | 74 | 1015.9 |
| 20260906062306 | 23 | 43 | 0.0 | 0.0 | 0.00 | 0.00 | 0.00 | 74 | 1015.9 |
| 20260906061804 | 23 | 43 | 0.0 | 0.0 | 0.00 | 0.00 | 0.00 | 74 | 1016.0 |
| 20260906061304 | 23 | 43 | 0.0 | 0.0 | 0.00 | 0.00 | 0.00 | 74 | 1015.9 |
| 20260906060804 | 23 | 43 | 0.0 | 0.0 | 0.00 | 0.00 | 0.00 | 74 | 1015.9 |
| 20260906060304 | 23 | 43 | 0.0 | 0.0 | 0.00 | 0.00 | 0.00 | 74 | 1015.9 |
| 20260906054804 | 22 | 43 | 0.0 | 0.0 | 0.00 | 0.00 | 0.00 | 75 | 1015.7 |
| 20260906054304 | 22 | 43 | 0.0 | 0.0 | 0.00 | 0.00 | 0.00 | 76 | 1015.6 |
| 20260906053804 | 22 | 43 | 0.0 | 0.0 | 0.00 | 0.00 | 0.00 | 76 | 1015.5 |
| 20260906053305 | 22 | 43 | 0.0 | 0.0 | 0.00 | 0.00 | 0.00 | 76 | 1015.5 |
| 20260906052805 | 22 | 43 | 0.0 | 0.0 | 0.00 | 0.00 | 0.00 | 76 | 1015.5 |
| 20260906052306 | 22 | 43 | 0.0 | 0.0 | 0.00 | 0.00 | 0.00 | 77 | 1015.5 |
| 20260906051304 | 22 | 43 | 0.0 | 0.0 | 0.00 | 0.00 | 0.00 | 78 | 1015.5 |
| 20260906050805 | 22 | 43 | 0.0 | 0.0 | 0.00 | 0.00 | 0.00 | 79 | 1015.5 |
| 20260906050304 | 22 | 43 | 0.0 | 0.0 | 0.00 | 0.00 | 0.00 | 79 | 1015.4 |
| 20260906044804 | 22 | 43 | 0.0 | 0.0 | 0.00 | 0.00 | 0.00 | 80 | 1015.3 |
| 20260906044304 | 22 | 43 | 0.0 | 0.0 | 0.00 | 0.00 | 0.00 | 80 | 1015.3 |
| 20260906043305 | 23 | 44 | 0.0 | 0.0 | 0.00 | 0.00 | 0.00 | 80 | 1015.4 |
| 20260906042804 | 23 | 44 | 0.0 | 0.0 | 0.00 | 0.00 | 0.00 | 80 | 1015.4 |
| 20260906042306 | 23 | 44 | 0.0 | 0.0 | 0.00 | 0.00 | 0.00 | 80 | 1015.4 |
| 20260906041805 | 23 | 44 | 0.0 | 0.0 | 0.00 | 0.00 | 0.00 | 81 | 1015.4 |
| 20260906041304 | 23 | 44 | 0.0 | 0.0 | 0.00 | 0.00 | 0.00 | 82 | 1015.4 |
| 20260906040804 | 23 | 44 | 0.0 | 0.0 | 0.00 | 0.00 | 0.00 | 82 | 1015.4 |
| 20260906040304 | 23 | 44 | 0.0 | 0.0 | 0.00 | 0.00 | 0.00 | 83 | 1015.4 |
| 20260906035804 | 23 | 44 | 0.0 | 0.0 | 0.00 | 0.00 | 0.00 | 83 | 1015.4 |
| 20260906035306 | 23 | 44 | 0.0 | 0.0 | 0.00 | 0.00 | 0.00 | 83 | 1015.4 |
| 20260906034304 | 23 | 44 | 0.0 | 0.0 | 0.00 | 0.00 | 0.00 | 82 | 1015.5 |
| 20260906033804 | 23 | 44 | 0.0 | 0.0 | 0.00 | 0.00 | 0.00 | 81 | 1015.5 |
| 20260906033304 | 23 | 44 | 0.0 | 0.0 | 0.00 | 0.00 | 0.00 | 81 | 1015.5 |
| 20260906032805 | 23 | 44 | 0.0 | 0.0 | 0.00 | 0.00 | 0.00 | 81 | 1015.5 |
| 20260906031305 | 23 | 44 | 0.0 | 0.0 | 0.00 | 0.00 | 0.00 | 82 | 1015.6 |
| 20260906030804 | 23 | 44 | 0.0 | 0.0 | 0.00 | 0.00 | 0.00 | 83 | 1015.6 |
| 20260906030304 | 23 | 44 | 0.0 | 0.0 | 0.00 | 0.00 | 0.00 | 83 | 1015.5 |
| 20260906025805 | 23 | 44 | 0.0 | 0.0 | 0.00 | 0.00 | 0.00 | 83 | 1015.5 |
| 20260906025306 | 23 | 44 | 0.0 | 0.0 | 0.00 | 0.00 | 0.00 | 84 | 1015.5 |
| 20260906023804 | 23 | 44 | 0.0 | 0.0 | 0.00 | 0.00 | 0.00 | 84 | 1015.6 |
| 20260906023304 | 23 | 44 | 0.0 | 0.0 | 0.00 | 0.00 | 0.00 | 84 | 1015.6 |
| 20260906022804 | 23 | 44 | 0.0 | 0.0 | 0.00 | 0.00 | 0.00 | 84 | 1015.6 |
| 20260906022307 | 23 | 44 | 0.0 | 0.0 | 0.00 | 0.00 | 0.00 | 84 | 1015.7 |
| 20260906021804 | 23 | 44 | 0.0 | 0.0 | 0.00 | 0.00 | 0.00 | 85 | 1015.7 |
| 20260906021304 | 23 | 44 | 0.0 | 0.0 | 0.00 | 0.00 | 0.00 | 85 | 1015.7 |
| 20260906020804 | 23 | 44 | 0.0 | 0.0 | 0.00 | 0.00 | 0.00 | 85 | 1015.7 |
| 20260906020304 | 23 | 44 | 0.0 | 0.0 | 0.00 | 0.00 | 0.00 | 86 | 1015.8 |
| 20260906015804 | 23 | 45 | 0.0 | 0.0 | 0.00 | 0.00 | 0.00 | 86 | 1015.8 |
| 20260906015306 | 23 | 45 | 0.0 | 0.0 | 0.00 | 0.00 | 0.00 | 87 | 1015.8 |
| 20260906014805 | 24 | 44 | 0.0 | 0.0 | 0.00 | 0.00 | 0.00 | 87 | 1015.9 |
| 20260906014304 | 24 | 44 | 0.0 | 0.0 | 0.00 | 0.00 | 0.00 | 87 | 1015.9 |
| 20260906013804 | 24 | 44 | 0.0 | 0.0 | 0.00 | 0.00 | 0.00 | 87 | 1016.0 |
| 20260906012804 | 24 | 44 | 0.0 | 0.0 | 0.00 | 0.00 | 0.00 | 87 | 1016.0 |
| 20260906012306 | 24 | 44 | 0.0 | 0.0 | 0.00 | 0.00 | 0.00 | 87 | 1016.0 |
| 20260906011805 | 24 | 44 | 0.0 | 0.0 | 0.00 | 0.00 | 0.00 | 87 | 1016.0 |
| 20260906011304 | 24 | 44 | 0.0 | 0.0 | 0.00 | 0.00 | 0.00 | 87 | 1016.0 |
| 20260906010804 | 24 | 44 | 0.0 | 0.0 | 0.00 | 0.00 | 0.00 | 87 | 1016.1 |
| 20260906010304 | 24 | 44 | 0.0 | 0.0 | 0.00 | 0.00 | 0.00 | 87 | 1016.1 |
| 20260906005804 | 24 | 44 | 0.0 | 0.0 | 0.00 | 0.00 | 0.00 | 86 | 1016.1 |
| 20260906004804 | 24 | 44 | 0.0 | 0.0 | 0.00 | 0.00 | 0.00 | 86 | 1016.2 |
| 20260906004304 | 24 | 44 | 0.0 | 0.0 | 0.00 | 0.00 | 0.00 | 85 | 1016.2 |
| 20260906002804 | 25 | 44 | 0.0 | 0.0 | 0.00 | 0.00 | 0.00 | 84 | 1016.2 |
| 20260906002306 | 25 | 44 | 0.0 | 0.0 | 0.00 | 0.00 | 0.00 | 84 | 1016.2 |
| 20260906001805 | 25 | 44 | 0.0 | 0.0 | 0.00 | 0.00 | 0.00 | 84 | 1016.2 |
| 20260906001304 | 25 | 44 | 0.0 | 0.0 | 0.00 | 0.00 | 0.00 | 84 | 1016.1 |
| 20260906000804 | 25 | 44 | 0.0 | 0.0 | 0.00 | 0.00 | 0.00 | 84 | 1016.2 |
| 20260906000304 | 25 | 44 | 0.0 | 0.0 | 0.00 | 0.00 | 0.00 | 84 | 1016.2 |
| 20260905235804 | 25 | 44 | 0.0 | 0.0 | 0.00 | 0.00 | 0.00 | 84 | 1016.2 |
| 20260905235306 | 25 | 44 | 0.0 | 0.0 | 0.00 | 0.00 | 0.00 | 83 | 1016.2 |
| 20260905234805 | 25 | 44 | 0.0 | 0.0 | 0.00 | 0.00 | 0.00 | 83 | 1016.3 |
| 20260905234304 | 25 | 44 | 0.0 | 0.0 | 0.00 | 0.00 | 0.00 | 83 | 1016.3 |
| 20260905233804 | 25 | 44 | 0.0 | 0.0 | 0.00 | 0.00 | 0.00 | 83 | 1016.4 |
| 20260905233304 | 25 | 44 | 0.0 | 0.0 | 0.00 | 0.00 | 0.00 | 83 | 1016.5 |
| 20260905232804 | 25 | 44 | 0.0 | 0.0 | 0.00 | 0.00 | 0.00 | 83 | 1016.5 |
| 20260905232306 | 25 | 44 | 0.0 | 0.0 | 0.00 | 0.00 | 0.00 | 83 | 1016.5 |
| 20260905231804 | 25 | 44 | 0.0 | 0.0 | 0.00 | 0.00 | 0.00 | 83 | 1016.5 |
| 20260905231304 | 25 | 44 | 0.0 | 0.0 | 0.00 | 0.00 | 0.00 | 83 | 1016.5 |
| 20260905230304 | 25 | 44 | 0.0 | 0.0 | 0.00 | 0.00 | 0.00 | 84 | 1016.5 |
| 20260905225804 | 25 | 44 | 0.0 | 0.0 | 0.00 | 0.00 | 0.00 | 84 | 1016.5 |
| 20260905225305 | 25 | 44 | 0.0 | 0.0 | 0.00 | 0.00 | 0.00 | 84 | 1016.6 |
| 20260905224804 | 25 | 44 | 0.0 | 0.0 | 0.00 | 0.00 | 0.00 | 84 | 1016.5 |
| 20260905224304 | 25 | 44 | 0.0 | 0.0 | 0.00 | 0.00 | 0.00 | 84 | 1016.6 |
| 20260905223304 | 25 | 44 | 0.0 | 0.0 | 0.00 | 0.00 | 0.00 | 84 | 1016.5 |
| 20260905222306 | 25 | 44 | 0.0 | 0.0 | 0.00 | 0.00 | 0.00 | 84 | 1016.5 |
| 20260905221804 | 25 | 44 | 0.0 | 0.0 | 0.00 | 0.00 | 0.00 | 85 | 1016.5 |
| 20260905221304 | 25 | 44 | 0.0 | 0.0 | 0.00 | 0.00 | 0.00 | 85 | 1016.4 |
| 20260905220816 | 25 | 44 | 0.0 | 0.0 | 0.00 | 0.00 | 0.00 | 85 | 1016.4 |
| 20260905220305 | 25 | 44 | 0.0 | 0.0 | 0.00 | 0.00 | 0.00 | 85 | 1016.4 |
| 20260905215804 | 25 | 44 | 0.0 | 0.0 | 0.00 | 0.00 | 0.00 | 85 | 1016.5 |
| 20260905215306 | 25 | 44 | 0.0 | 0.0 | 0.00 | 0.00 | 0.00 | 85 | 1016.5 |
| 20260905214804 | 25 | 44 | 0.0 | 0.0 | 0.00 | 0.00 | 0.00 | 85 | 1016.5 |
| 20260905213804 | 25 | 44 | 0.0 | 0.0 | 0.00 | 0.00 | 0.00 | 85 | 1016.6 |
| 20260905213304 | 25 | 44 | 0.0 | 0.0 | 0.00 | 0.00 | 0.00 | 85 | 1016.6 |
| 20260905211304 | 26 | 43 | 0.0 | 0.0 | 0.00 | 0.00 | 0.00 | 83 | 1016.4 |
| 20260905210804 | 26 | 44 | 0.0 | 0.0 | 0.00 | 0.00 | 0.00 | 83 | 1016.3 |
| 20260905210304 | 26 | 44 | 0.0 | 0.0 | 0.00 | 0.00 | 0.00 | 82 | 1016.4 |
| 20260905205803 | 27 | 44 | 0.0 | 0.0 | 0.00 | 0.00 | 0.00 | 83 | 1016.4 |
| 20260905205306 | 26 | 43 | 0.0 | 0.0 | 0.00 | 0.00 | 0.00 | 83 | 1016.4 |
| 20260905204804 | 27 | 43 | 0.0 | 0.0 | 0.00 | 0.00 | 0.00 | 83 | 1016.4 |
| 20260905204304 | 26 | 44 | 0.0 | 3.2 | 0.00 | 0.00 | 0.00 | 83 | 1016.3 |
| 20260905203804 | 26 | 44 | 0.0 | 3.2 | 0.00 | 0.00 | 0.00 | 83 | 1016.4 |
| 20260905202804 | 26 | 33 | 0.0 | 0.0 | 0.00 | 0.00 | 0.00 | 83 | 1016.4 |
| 20260905202306 | 27 | 36 | 0.0 | 0.0 | 0.00 | 0.00 | 0.00 | 83 | 1016.4 |
| 20260905201804 | 27 | 42 | 0.0 | 0.0 | 0.00 | 0.00 | 0.00 | 83 | 1016.4 |
| 20260905201305 | 27 | 41 | 0.0 | 0.0 | 0.00 | 0.00 | 0.00 | 83 | 1016.4 |
| 20260905200804 | 27 | 41 | 0.0 | 0.0 | 0.00 | 0.00 | 0.00 | 83 | 1016.4 |
| 20260905200304 | 27 | 40 | 0.0 | 0.0 | 0.00 | 0.00 | 0.00 | 83 | 1016.3 |
| 20260905195804 | 27 | 40 | 0.0 | 4.8 | 0.00 | 0.00 | 0.00 | 83 | 1016.2 |
| 20260905194804 | 27 | 134 | 0.0 | 0.0 | 0.00 | 0.00 | 0.00 | 83 | 1016.1 |
| 20260905194304 | 27 | 134 | 0.0 | 0.0 | 0.00 | 0.00 | 0.00 | 83 | 1016.1 |
| 20260905193804 | 27 | 134 | 0.0 | 1.6 | 0.00 | 0.00 | 0.00 | 83 | 1016.1 |
| 20260905193303 | 27 | 134 | 0.0 | 0.0 | 0.00 | 0.00 | 0.00 | 83 | 1016.1 |
| 20260905192306 | 27 | 134 | 0.0 | 1.6 | 0.00 | 0.00 | 0.00 | 82 | 1015.9 |
| 20260905190303 | 28 | 153 | 0.0 | 0.0 | 0.00 | 0.00 | 0.00 | 80 | 1015.7 |
| 20260905185804 | 28 | 153 | 0.0 | 0.0 | 0.00 | 0.00 | 0.00 | 79 | 1015.7 |
| 20260905185306 | 28 | 152 | 0.0 | 0.0 | 0.00 | 0.00 | 0.00 | 77 | 1015.6 |
| 20260905184304 | 28 | 152 | 0.0 | 1.6 | 0.00 | 0.00 | 0.00 | 75 | 1015.5 |
| 20260905183804 | 29 | 152 | 0.0 | 0.0 | 0.00 | 0.00 | 0.00 | 74 | 1015.4 |
| 20260905183304 | 29 | 152 | 0.0 | 0.0 | 0.00 | 0.00 | 0.00 | 74 | 1015.4 |
| 20260905182803 | 29 | 152 | 0.0 | 0.0 | 0.00 | 0.00 | 0.00 | 75 | 1015.4 |
| 20260905182305 | 29 | 152 | 0.0 | 0.0 | 0.00 | 0.00 | 0.00 | 75 | 1015.4 |
| 20260905181804 | 29 | 152 | 0.0 | 1.6 | 0.00 | 0.00 | 0.00 | 74 | 1015.3 |
| 20260905181304 | 29 | 152 | 0.0 | 1.6 | 0.00 | 0.00 | 0.00 | 73 | 1015.3 |
| 20260905180804 | 30 | 152 | 0.0 | 3.2 | 0.00 | 0.00 | 0.00 | 72 | 1015.2 |
| 20260905180304 | 30 | 152 | 1.6 | 3.2 | 0.00 | 0.00 | 0.00 | 73 | 1015.3 |
| 20260905175306 | 30 | 152 | 0.0 | 0.0 | 0.00 | 0.00 | 0.00 | 72 | 1015.2 |
| 20260905174303 | 30 | 152 | 0.0 | 0.0 | 0.00 | 0.00 | 0.00 | 72 | 1015.2 |
| 20260905173804 | 30 | 152 | 0.0 | 4.8 | 0.00 | 0.00 | 0.00 | 72 | 1015.2 |
| 20260905172803 | 30 | 152 | 0.0 | 1.6 | 0.00 | 0.00 | 0.00 | 71 | 1015.2 |
| 20260905172305 | 30 | 152 | 0.0 | 1.6 | 0.00 | 0.00 | 0.00 | 70 | 1015.1 |
| 20260905171804 | 31 | 151 | 0.0 | 3.2 | 0.00 | 0.00 | 0.00 | 70 | 1015.1 |
| 20260905171303 | 31 | 151 | 0.0 | 0.0 | 0.00 | 0.00 | 0.00 | 69 | 1015.1 |
| 20260905170803 | 31 | 152 | 1.6 | 8.0 | 0.00 | 0.00 | 0.00 | 69 | 1015.1 |
| 20260905170305 | 31 | 154 | 0.0 | 4.8 | 0.00 | 0.00 | 0.00 | 68 | 1015.0 |
| 20260905164805 | 31 | 146 | 3.2 | 11.3 | 0.00 | 0.00 | 0.00 | 68 | 1014.9 |
| 20260905164305 | 31 | 154 | 3.2 | 11.3 | 0.00 | 0.00 | 0.00 | 69 | 1014.8 |
| 20260905163805 | 31 | 113 | 1.6 | 4.8 | 0.00 | 0.00 | 0.00 | 69 | 1014.8 |
| 20260905163305 | 31 | 151 | 3.2 | 11.3 | 0.00 | 0.00 | 0.00 | 69 | 1014.8 |
| 20260905162805 | 31 | 145 | 1.6 | 9.7 | 0.00 | 0.00 | 0.00 | 69 | 1014.9 |
| 20260905162306 | 31 | 156 | 1.6 | 4.8 | 0.00 | 0.00 | 0.00 | 69 | 1014.9 |
| 20260905161805 | 31 | 159 | 1.6 | 9.7 | 0.00 | 0.00 | 0.00 | 69 | 1014.9 |
| 20260905161305 | 31 | 150 | 1.6 | 11.3 | 0.00 | 0.00 | 0.00 | 69 | 1014.9 |
| 20260905160305 | 31 | 150 | 3.2 | 14.5 | 0.00 | 0.00 | 0.00 | 69 | 1014.8 |
| 20260905155805 | 31 | 145 | 1.6 | 8.0 | 0.00 | 0.00 | 0.00 | 69 | 1014.9 |
| 20260905154804 | 31 | 115 | 1.6 | 9.7 | 0.00 | 0.00 | 0.00 | 70 | 1014.9 |
| 20260905154305 | 32 | 109 | 3.2 | 9.7 | 0.00 | 0.00 | 0.00 | 69 | 1014.9 |
| 20260905153805 | 32 | 132 | 1.6 | 11.3 | 0.00 | 0.00 | 0.00 | 68 | 1015.0 |
| 20260905153305 | 32 | 132 | 1.6 | 8.0 | 0.00 | 0.00 | 0.00 | 66 | 1015.0 |
| 20260905152805 | 32 | 131 | 3.2 | 11.3 | 0.00 | 0.00 | 0.00 | 66 | 1015.0 |
| 20260905152306 | 32 | 101 | 1.6 | 4.8 | 0.00 | 0.00 | 0.00 | 65 | 1015.0 |
| 20260905151804 | 32 | 135 | 1.6 | 12.9 | 0.00 | 0.00 | 0.00 | 66 | 1015.0 |
| 20260905151305 | 32 | 126 | 3.2 | 8.0 | 0.00 | 0.00 | 0.00 | 64 | 1015.0 |
| 20260905150805 | 32 | 152 | 4.8 | 11.3 | 0.00 | 0.00 | 0.00 | 64 | 1015.0 |
| 20260905150305 | 32 | 128 | 4.8 | 11.3 | 0.00 | 0.00 | 0.00 | 64 | 1015.1 |
| 20260905145804 | 32 | 124 | 3.2 | 12.9 | 0.00 | 0.00 | 0.00 | 63 | 1015.2 |
| 20260905144805 | 32 | 149 | 4.8 | 9.7 | 0.00 | 0.00 | 0.00 | 62 | 1015.3 |
| 20260905144305 | 33 | 144 | 4.8 | 11.3 | 0.00 | 0.00 | 0.00 | 61 | 1015.3 |
| 20260905143805 | 32 | 139 | 6.4 | 14.5 | 0.00 | 0.00 | 0.00 | 61 | 1015.3 |
| 20260905143305 | 33 | 149 | 4.8 | 14.5 | 0.00 | 0.00 | 0.00 | 58 | 1015.3 |
| 20260905142805 | 33 | 147 | 6.4 | 14.5 | 0.00 | 0.00 | 0.00 | 55 | 1015.4 |
| 20260905142306 | 33 | 143 | 3.2 | 11.3 | 0.00 | 0.00 | 0.00 | 53 | 1015.4 |
| 20260905141805 | 33 | 147 | 4.8 | 12.9 | 0.00 | 0.00 | 0.00 | 52 | 1015.4 |
| 20260905141305 | 34 | 141 | 4.8 | 11.3 | 0.00 | 0.00 | 0.00 | 52 | 1015.5 |
| 20260905140804 | 33 | 133 | 4.8 | 12.9 | 0.00 | 0.00 | 0.00 | 50 | 1015.5 |
| 20260905140305 | 34 | 143 | 3.2 | 9.7 | 0.00 | 0.00 | 0.00 | 50 | 1015.5 |
| 20260905135805 | 34 | 155 | 3.2 | 11.3 | 0.00 | 0.00 | 0.00 | 48 | 1015.5 |
| 20260905135306 | 33 | 148 | 3.2 | 9.7 | 0.00 | 0.00 | 0.00 | 48 | 1015.6 |
| 20260905134805 | 33 | 143 | 4.8 | 11.3 | 0.00 | 0.00 | 0.00 | 47 | 1015.6 |
| 20260905134305 | 34 | 142 | 3.2 | 9.7 | 0.00 | 0.00 | 0.00 | 48 | 1015.7 |
| 20260905133804 | 34 | 143 | 6.4 | 14.5 | 0.00 | 0.00 | 0.00 | 47 | 1015.7 |
| 20260905133305 | 34 | 150 | 3.2 | 11.3 | 0.00 | 0.00 | 0.00 | 49 | 1015.7 |
| 20260905131805 | 34 | 124 | 1.6 | 4.8 | 0.00 | 0.00 | 0.00 | 53 | 1016.0 |
| 20260905131305 | 33 | 139 | 1.6 | 8.0 | 0.00 | 0.00 | 0.00 | 54 | 1016.1 |